Baker City, OR

5:20 AM PST on February 26, 2017 (GMT -0800)
Baker City Municipal

Weather History for KBKE - December, 2012

Change the Weather History Date:

Sunday, December 2, 2012

  Actual Average Record
Temperature  
Mean Temperature 41 °F 27 °F  
Max Temperature 49 °F 36 °F 51 °F (2008)
Min Temperature 33 °F 18 °F 1 °F (1984)
Degree Days  
Heating Degree Days 24 38  
Month to date heating degree days 43 76  
Since 1 July heating degree days 1846 2113  
Cooling Degree Days 0 0  
Month to date cooling degree days 0 0  
Year to date cooling degree days 184 169  
Moisture  
Dew Point 33 °F    
Average Humidity 64    
Maximum Humidity 89    
Minimum Humidity 39    
Precipitation  
Precipitation 0.34 in 0.04 in 0.64 in (1980)
Month to date precipitation 0.37 0.07  
Year to date precipitation 7.81 9.22  
Sea Level Pressure  
Sea Level Pressure 29.59 in    
Wind  
Wind Speed 9 mph (SSE)    
Max Wind Speed 23 mph    
Max Gust Speed 29 mph    
Visibility 9 miles    
Events Rain    
T = Trace of Precipitation, MM = Missing Value Source: NWS Daily Summary

Daily Weather History Graph

Daily Weather History Graph

Search for Another Location

Airport or City:

Trip Planner

Search our weather history database for the weather conditions in past years. The results will help you decide how hot, cold, wet, or windy it might be!

Date:

Astronomy

Dec. 02, 2012 Rise Set
Actual Time 7:10 AM PST 4:11 PM PST
Civil Twilight 6:37 AM PST 4:44 PM PST
Nautical Twilight 6:00 AM PST 5:20 PM PST
Astronomical Twilight 5:25 AM PST 5:56 PM PST
Moon 8:07 PM PST (12/2) 9:59 AM PST (12/2)
Length of Visible Light 10h 06m
Length of Day
9h 00m
Waning Gibbous, 85% of the Moon is Illuminated
Dec 2
Waning Gibbous
Dec 6
Last Quarter
Dec 13
New
Dec 19
First Quarter
Dec 28
Full

Hourly Weather History & Observations

Time (PST) Temp. Windchill Dew Point Humidity Pressure Visibility Wind Dir Wind Speed Gust Speed Precip Events Conditions
12:53 AM 44.1 °F 37.7 °F 41.0 °F 89% 29.48 in 10.0 mi East 12.7 mph - 0.01 in Rain Light Rain
1:15 AM 46.4 °F 40.4 °F 41.0 °F 81% 29.47 in 6.0 mi SE 13.8 mph 23.0 mph 0.05 in Rain Rain
1:53 AM 45.0 °F 39.7 °F 41.0 °F 86% 29.43 in 10.0 mi ESE 10.4 mph - 0.08 in Rain Light Rain
2:53 AM 46.9 °F - 41.0 °F 80% 29.36 in 10.0 mi SE 11.5 mph - 0.03 in Rain Light Rain
3:53 AM 46.9 °F - 39.9 °F 77% 29.32 in 8.0 mi SSE 8.1 mph - 0.04 in Rain Light Rain
4:53 AM 46.0 °F 41.4 °F 42.1 °F 86% 29.31 in 4.0 mi SE 9.2 mph - 0.09 in Rain Rain
5:53 AM 46.9 °F - 42.1 °F 83% 29.30 in 8.0 mi ESE 6.9 mph - 0.07 in Rain Light Rain
6:53 AM 46.9 °F - 43.0 °F 86% 29.30 in 10.0 mi SSE 6.9 mph - 0.01 in Rain Light Rain
7:53 AM 46.0 °F 40.6 °F 43.0 °F 89% 29.31 in 10.0 mi South 11.5 mph - 0.00 in Rain Light Rain
8:53 AM 45.0 °F 41.8 °F 43.0 °F 93% 29.36 in 10.0 mi South 5.8 mph - 0.01 in   Overcast
9:53 AM 45.0 °F 41.8 °F 39.0 °F 80% 29.39 in 10.0 mi ESE 5.8 mph - N/A   Overcast
10:53 AM 46.0 °F 43.9 °F 39.9 °F 79% 29.46 in 10.0 mi ESE 4.6 mph - 0.00 in   Mostly Cloudy
11:53 AM 45.0 °F 37.9 °F 32.0 °F 60% 29.50 in 10.0 mi NW 16.1 mph 26.5 mph N/A   Clear
12:53 PM 45.0 °F 39.7 °F 23.0 °F 42% 29.55 in 10.0 mi West 10.4 mph 19.6 mph N/A   Clear
1:53 PM 48.0 °F - 24.1 °F 39% 29.60 in 10.0 mi West 13.8 mph - N/A   Clear
2:53 PM 46.0 °F 42.5 °F 25.0 °F 44% 29.67 in 10.0 mi SSW 6.9 mph - N/A   Clear
3:53 PM 43.0 °F - 21.9 °F 43% 29.74 in 10.0 mi Calm Calm - N/A   Clear
4:53 PM 37.0 °F 32.4 °F 21.9 °F 54% 29.81 in 10.0 mi South 5.8 mph - N/A   Clear
5:53 PM 34.0 °F 28.0 °F 23.0 °F 64% 29.84 in 10.0 mi ENE 6.9 mph - N/A   Clear
6:53 PM 37.0 °F - 21.9 °F 54% 29.86 in 10.0 mi Calm Calm - N/A   Clear
7:53 PM 37.9 °F 34.4 °F 24.1 °F 57% 29.88 in 10.0 mi East 4.6 mph - N/A   Clear
8:53 PM 37.9 °F 30.0 °F 25.0 °F 60% 29.91 in 10.0 mi South 12.7 mph - N/A   Partly Cloudy
9:53 PM 39.0 °F 29.9 °F 25.0 °F 57% 29.95 in 10.0 mi South 17.3 mph - N/A   Mostly Cloudy
10:53 PM 37.0 °F 29.8 °F 25.0 °F 62% 29.98 in 10.0 mi SSE 10.4 mph - N/A   Partly Cloudy
11:53 PM 37.9 °F 30.9 °F 25.0 °F 60% 30.02 in 10.0 mi South 10.4 mph - N/A   Clear